Terminal Aerodrome Forecast
Issued by NWS Twin Cities, MN

Home | Current Version | Previous Version | Text Only | Print | Product List | Glossary Off
Versions: 1 2 3 4 5 6 7 8 9 10 11 12 13 14 15 16 17 18 19 20 21 22 23 24 25 26

000
FTUS43 KMPX 181100
TAFSTC
TAF
KSTC 181124Z 1812/1912 08008KT P6SM BKN006
     FM181400 11006KT P6SM SCT008 BKN015
     FM181600 13008KT P6SM SCT015
     FM181700 15010KT P6SM SCT035=

USA.gov is the U.S. government's official web portal to all federal, state and local government web resources and services.